Seale, AL

3:09 PM CDT on September 30, 2016 (GMT -0500)
Lawson Army Air Field

Weather History for KLSF - March, 2013

Change the Weather History Date:

Saturday, March 30, 2013

  Actual Average Record
Temperature  
Mean Temperature 62 °F -  
Max Temperature 77 °F 72 °F 84 °F (1998)
Min Temperature 49 °F 44 °F 35 °F (2009)
Degree Days  
Heating Degree Days 2    
Growing Degree Days 12 (Base 50)    
Moisture  
Dew Point 48 °F    
Average Humidity 59    
Maximum Humidity 86    
Minimum Humidity 39    
Precipitation  
Precipitation 0.00 in - - ()
Sea Level Pressure  
Sea Level Pressure 30.13 in    
Wind  
Wind Speed 4 mph (South)    
Max Wind Speed 9 mph    
Max Gust Speed -    
Visibility 10 miles    
Events Rain    
Averages and records for this station are not official NWS values.
T = Trace of Precipitation, MM = Missing Value Source: NWS Daily Summary

Daily Weather History Graph

Daily Weather History Graph

Search for Another Location

Airport or City:

Trip Planner

Search our weather history database for the weather conditions in past years. The results will help you decide how hot, cold, wet, or windy it might be!

Date:

Astronomy

Mar. 30, 2013 Rise Set
Actual Time 7:30 AM EDT 7:58 PM EDT
Civil Twilight 7:05 AM EDT 8:23 PM EDT
Nautical Twilight 6:36 AM EDT 8:52 PM EDT
Astronomical Twilight 6:07 AM EDT 9:21 PM EDT
Moon 11:50 PM EDT 9:37 AM EDT
Length of Visible Light 13h 17m
Length of Day
12h 28m
Waning Gibbous, 86% of the Moon is Illuminated
Mar 30
Waning Gibbous
Apr 3
Last Quarter
Apr 10
New
Apr 18
First Quarter
Apr 25
Full

Hourly Weather History & Observations

Time (EDT) Temp. Dew Point Humidity Pressure Visibility Wind Dir Wind Speed Gust Speed Precip Events Conditions
12:58 AM 60.8 °F 35.8 °F 39% 30.21 in 10.0 mi Variable 2.3 mph - N/A   Overcast
1:58 AM 56.8 °F 38.7 °F 51% 30.20 in 10.0 mi South 2.3 mph - N/A   Overcast
2:58 AM 52.0 °F 42.4 °F 70% 30.19 in 10.0 mi SE 3.5 mph - N/A   Overcast
3:58 AM 50.5 °F 43.7 °F 77% 30.18 in 10.0 mi Calm Calm - N/A   Mostly Cloudy
4:58 AM 50.0 °F 43.3 °F 78% 30.18 in 10.0 mi SE 3.5 mph - N/A   Overcast
5:58 AM 49.8 °F 44.4 °F 82% 30.17 in 10.0 mi SE 4.6 mph - N/A   Overcast
6:58 AM 50.9 °F 45.0 °F 80% 30.18 in 10.0 mi SE 3.5 mph - N/A   Overcast
7:58 AM 50.9 °F 46.8 °F 86% 30.20 in 10.0 mi SE 4.6 mph - N/A   Overcast
8:58 AM 55.6 °F 48.4 °F 77% 30.20 in 10.0 mi East 2.3 mph - N/A   Overcast
9:58 AM 60.3 °F 50.5 °F 70% 30.21 in 10.0 mi Variable 3.5 mph - N/A   Mostly Cloudy
10:58 AM 63.9 °F 51.3 °F 64% 30.20 in 10.0 mi West 5.8 mph - N/A   Scattered Clouds
11:58 AM 66.2 °F 51.3 °F 59% 30.19 in 10.0 mi North 3.5 mph - N/A   Overcast
12:58 PM 71.2 °F 52.9 °F 52% 30.17 in 10.0 mi Variable 3.5 mph - N/A   Partly Cloudy
1:58 PM 72.1 °F 51.3 °F 48% 30.14 in 10.0 mi WSW 3.5 mph - N/A   Overcast
2:58 PM 76.3 °F 51.3 °F 41% 30.10 in 10.0 mi Variable 3.5 mph - N/A   Partly Cloudy
3:58 PM 74.7 °F 51.8 °F 45% 30.08 in 10.0 mi Variable 6.9 mph - N/A   Mostly Cloudy
4:58 PM 74.8 °F 49.8 °F 41% 30.06 in 10.0 mi Variable 5.8 mph - N/A   Mostly Cloudy
5:58 PM 74.3 °F 49.8 °F 42% 30.05 in 10.0 mi SW 9.2 mph - N/A   Overcast
6:59 PM 73.4 °F 48.7 °F 42% 30.05 in 10.0 mi SSW 6.9 mph - N/A   Mostly Cloudy
7:58 PM 70.7 °F 49.8 °F 48% 30.04 in 10.0 mi South 6.9 mph - N/A   Mostly Cloudy
8:58 PM 69.4 °F 51.1 °F 52% 30.04 in 10.0 mi Variable 4.6 mph - N/A   Mostly Cloudy
9:58 PM 68.7 °F 51.3 °F 54% 30.05 in 10.0 mi Variable 5.8 mph - N/A   Mostly Cloudy
10:58 PM 67.8 °F 50.2 °F 53% 30.06 in 10.0 mi South 5.8 mph - N/A   Overcast
11:48 PM 66.2 °F 51.8 °F 60% 30.06 in 10.0 mi Variable 6.9 mph - N/A Rain Light Rain
11:58 PM 66.4 °F 52.7 °F 61% 30.06 in 10.0 mi South 8.1 mph - 0.00 in Rain Light Rain